Home   Weather   Victoria   Past weeks
Flag for Canada

Past Weather in Victoria, British Columbia, Canada — Yesterday and Last 2 Weeks

Now
52 °F

Passing clouds.


Feels Like: 51 °F
Forecast: 56 / 47 °F
Wind: 5 mph from Southeast

Location: Victoria Int. Airportb. C.

Current Time: Apr 26, 2019 at 9:40:15 am

Latest Report: Apr 26, 2019 at 9:00 am


Visibility: 30 mi

Pressure: 30.14 "Hg

Humidity: 72%

Dew Point: 43 °F

Location of VictoriaLocation

Past Weather in Victoria — Graph

°F

Victoria Temperature Yesterday

Maximum temperature yesterday: 59 °F (at 4:00 pm)
Minimum temperature yesterday: 36 °F (at 4:34 am)
Average temperature yesterday: 49 °F

High & Low Weather Summary for the Past Weeks

 TemperatureHumidityPressure
High61 °F (Apr 20, 3:00 pm)100% (Apr 11, 12:19 pm)30.37 "Hg (Apr 11, 12:19 pm)
Low36 °F (Apr 25, 4:34 am)47% (Apr 14, 2:00 pm)29.74 "Hg (Apr 15, 8:00 pm)
Average49 °F80%30.07 "Hg
* Reported Apr 11 8:00 am — Apr 26 8:00 am, Victoria. Weather by CustomWeather, © 2019

Note: Actual official high and low records may vary slightly from our data, if they occured in-between our weather recording intervals... More about our weather records

Advertising

Victoria Weather History for the Previous 24 Hours

Scroll right to see more
 ConditionsComfort  
Time TempWeatherWind HumidityBarometerVisibility
8:00 am
Fri, Apr 26
48 °FPassing clouds.3 mph82%30.13 "Hg30 mi
7:00 am43 °FPassing clouds.3 mph100%30.11 "Hg30 mi
6:00 am41 °FPassing clouds.3 mph100%30.10 "Hg30 mi
5:00 am41 °FPassing clouds.5 mph93%30.09 "Hg30 mi
4:00 am41 °FPassing clouds.8 mph93%30.08 "Hg20 mi
3:00 am45 °FPassing clouds.5 mph87%30.07 "Hg20 mi
2:00 am43 °FPassing clouds.2 mph87%30.06 "Hg20 mi
1:00 am45 °FPartly cloudy.5 mph87%30.06 "Hg20 mi
12:00 am48 °FPassing clouds.2 mph71%30.06 "Hg20 mi
11:00 pm
Thu, Apr 25
50 °FOvercast.2 mph71%30.06 "Hg20 mi
10:00 pm50 °FMostly cloudy.No wind67%30.06 "Hg20 mi
9:00 pm52 °FMostly cloudy.3 mph62%30.06 "Hg30 mi
8:00 pm54 °FBroken clouds.5 mph58%30.06 "Hg30 mi
7:00 pm55 °FPartly sunny.7 mph51%30.07 "Hg30 mi
6:00 pm55 °FPartly sunny.7 mph59%30.09 "Hg30 mi
5:00 pm59 °FBroken clouds.5 mph48%30.10 "Hg30 mi
4:00 pm59 °FPartly sunny.6 mph51%30.12 "Hg30 mi
3:00 pm57 °FPartly sunny.6 mph55%30.14 "Hg30 mi
2:00 pm57 °FPartly sunny.8 mph51%30.16 "Hg30 mi
1:00 pm57 °FPartly sunny.7 mph55%30.18 "Hg30 mi
12:00 pm55 °FPartly sunny.5 mph55%30.20 "Hg30 mi
11:00 am54 °FPartly sunny.2 mph58%30.22 "Hg30 mi
10:00 am50 °FPartly sunny.7 mph58%30.24 "Hg30 mi
Weather by CustomWeather, © 2019

See weather overview